Theta_e
312 312 312 311 309 307 298 287 282 294 295 284 283 285 287 294 293 294 292 292 290 289 291 289 289 291 294 299 298 294 295 286 289 292 297 302 302 295 290 287 285 287 285 289
312 312 311 310 308 307 293 287 288 294 294 279 280 285 288 292 292 291 290 289 293 292 289 285 291 293 298 297 296 296 295 287 283 287 294 295 295 297 296 294 287 289 287 290
312 312 311 310 309 308 294 286 283 286 291 286 283 282 284 286 293 292 292 291 293 290 288 290 288 291 296 297 298 304 296 287 285 285 287 292 290 295 296 296 292 292 292 293
312 312 311 310 308 307 295 288 285 290 280 283 287 284 285 285 285 291 293 290 289 287 282 286 286 290 291 294 299 294 291 285 287 290 293 294 294 294 295 294 296 293 295 295
311 312 311 310 309 306 294 290 290 292 287 290 287 286 282 285 286 287 287 288 289 287 283 286 284 286 286 287 292 289 288 285 287 288 294 294 292 295 296 296 296 296 297 295
311 311 311 310 309 303 296 298 298 292 289 285 285 285 286 286 287 289 292 290 287 286 289 291 291 291 290 290 287 286 286 285 285 283 290 291 289 294 296 296 298 297 294 298
309 310 311 311 309 304 296 294 296 290 284 286 286 287 288 286 287 286 289 290 287 291 294 293 290 288 288 290 290 290 285 284 285 283 286 281 292 298 300 298 300 300 299 302
310 310 309 310 310 308 296 295 295 292 285 288 286 288 288 287 287 285 287 290 291 292 290 285 282 281 282 287 289 289 291 286 283 282 283 289 293 300 303 300 298 303 301 302
310 310 310 309 310 309 298 295 296 294 288 286 290 286 287 284 284 285 287 291 291 290 285 284 278 277 281 282 287 290 290 291 286 283 282 282 294 305 311 310 296 304 305 304
310 310 310 310 310 309 301 297 297 297 290 292 291 286 285 289 289 285 288 286 287 288 287 284 280 279 285 280 281 282 283 285 283 284 285 289 297 309 315 296 297 313 315 315
310 310 310 310 310 310 304 299 300 297 292 292 292 293 290 289 289 285 284 284 286 288 284 282 284 284 283 282 284 284 283 283 283 284 284 282 307 308 304 306 312 316 316 318
312 311 311 311 311 310 309 298 301 302 295 293 297 296 297 295 294 291 290 287 286 287 286 286 286 285 285 284 281 290 284 289 288 288 287 298 308 308 312 314 314 316 318 320
311 311 311 311 312 311 309 301 301 298 293 292 288 290 295 297 297 298 289 291 292 291 292 288 287 284 288 281 284 288 292 294 293 294 297 301 308 313 314 315 315 317 320 322
311 311 311 312 312 311 310 303 301 300 294 286 288 296 291 295 296 296 296 294 293 292 295 291 288 287 291 286 287 288 290 291 289 294 298 305 311 311 313 316 318 318 323 325
311 311 311 312 312 311 308 306 303 303 293 287 289 294 295 294 293 294 294 293 291 289 290 290 288 292 290 292 291 287 292 290 289 291 299 303 307 311 316 316 316 320 322 325
310 311 311 311 311 310 302 294 300 304 301 291 286 293 292 294 293 292 293 294 293 292 290 289 292 296 292 284 285 292 296 298 300 298 305 308 312 314 317 316 317 320 322 325
310 310 310 311 310 304 297 295 301 304 302 291 286 288 296 296 296 297 295 295 293 292 291 291 291 292 294 286 284 293 296 298 298 302 305 308 312 310 315 317 317 319 321 323
310 310 311 310 309 307 301 305 306 305 298 294 286 288 291 294 294 295 296 291 293 294 292 295 293 294 292 284 291 294 297 298 299 302 309 313 315 315 315 317 317 316 315 320
310 310 310 305 303 299 300 309 309 305 297 287 287 285 285 299 294 297 298 298 292 298 293 294 293 290 286 291 294 298 303 306 310 312 313 313 313 313 314 314 314 313 314 316
309 301 298 295 299 309 307 301 295 294 294 290 285 288 286 294 296 295 296 296 291 287 290 296 291 287 295 298 303 306 309 312 313 309 308 311 311 312 312 312 313 313 316 316
298 295 294 300 306 305 300 293 291 289 285 286 288 289 288 297 291 294 296 291 289 285 291 288 287 287 296 305 310 312 313 313 312 313 312 312 312 312 313 313 315 316 318 317
302 302 305 300 299 297 294 292 294 293 291 293 291 294 292 296 299 296 297 292 292 286 295 288 285 297 304 307 308 310 311 313 313 314 312 313 313 313 313 313 315 315 316 317
302 297 295 295 297 292 289 287 291 294 300 301 300 299 302 303 302 298 297 292 290 297 288 285 295 301 304 305 307 307 310 312 311 310 311 311 311 312 312 313 315 315 314 316
297 294 289 292 292 295 294 294 295 300 301 301 300 298 297 298 295 296 293 294 294 288 285 288 297 301 301 303 304 304 303 306 307 307 308 308 309 309 312 314 315 315 313 313
296 298 289 292 298 298 298 299 299 301 302 300 298 297 296 294 294 296 293 291 285 289 290 296 300 302 301 299 299 299 299 299 300 302 304 306 306 305 306 308 311 313 312 312
300 298 293 296 295 295 296 296 295 299 300 301 300 296 295 294 295 292 290 288 287 293 298 301 302 301 300 299 298 298 299 299 299 300 301 301 301 302 303 303 304 306 306 306
299 295 296 294 293 292 293 296 295 298 297 295 296 291 291 295 291 289 292 290 293 298 298 299 301 300 299 298 296 297 297 298 298 298 299 300 301 301 301 299 301 303 302 302
Wind_Speed
20 20 19 18 16 17 7 3 4 4 7 6 2 4 10 10 12 9 6 4 3 3 5 4 5 5 5 10 8 5 1 3 7 6 2 9 20 9 8 8 9 6 5 9
19 19 18 15 13 11 2 3 4 5 4 5 4 6 5 4 10 9 8 5 5 4 3 4 4 4 5 13 10 5 6 2 2 5 8 3 5 10 12 9 4 13 9 7
18 16 14 11 11 10 3 3 6 5 4 2 4 6 6 6 8 5 10 10 6 6 6 5 4 6 4 7 5 9 3 2 4 3 3 4 7 8 8 17 15 14 18 9
18 17 15 12 11 8 4 2 1 0 5 4 7 5 5 7 7 4 5 5 13 7 3 4 3 5 5 6 7 5 4 0 2 3 10 7 12 16 14 13 21 16 12 18
18 17 16 13 9 3 2 1 2 1 5 6 7 6 5 5 9 3 8 4 13 13 4 2 2 6 2 4 6 6 5 3 2 4 9 10 11 15 16 15 10 12 17 9
18 17 17 15 9 4 1 2 2 1 2 3 3 2 3 10 8 9 6 8 12 9 3 4 9 9 9 8 2 2 3 2 2 5 4 10 17 10 15 9 9 9 17 10
19 18 17 15 8 8 2 2 1 3 4 4 7 10 15 13 10 10 15 12 8 6 8 9 6 6 11 11 14 10 4 1 1 4 2 10 4 9 7 18 18 15 8 12
18 18 18 16 12 3 3 2 2 2 4 7 8 12 12 8 9 8 9 13 6 6 5 4 6 5 2 8 17 15 16 6 4 4 7 13 19 5 4 4 9 13 14 9
19 18 17 16 14 9 3 3 3 2 4 5 10 4 4 11 7 5 4 6 6 2 2 1 3 4 3 4 6 12 13 14 6 2 6 10 2 2 6 4 7 7 7 18
22 20 19 18 17 12 4 3 5 3 4 5 8 8 5 5 3 3 6 5 5 2 2 4 4 5 3 4 3 1 4 7 16 13 8 7 6 5 5 9 7 16 10 14
23 23 22 21 19 16 3 3 6 3 4 9 11 11 13 9 6 5 4 5 2 0 2 3 3 4 3 4 4 4 7 8 7 8 7 19 1 3 6 3 8 12 17 19
23 23 23 22 21 18 9 4 3 4 6 8 13 16 16 19 17 7 6 7 2 3 2 3 2 3 3 4 5 3 7 10 5 10 8 7 4 9 8 5 9 10 19 19
26 25 25 23 20 19 13 4 4 2 3 7 4 9 11 10 18 15 8 6 8 7 6 2 4 6 4 4 5 3 5 4 5 7 12 12 7 7 6 7 5 13 15 14
26 24 25 23 19 17 15 4 4 3 1 4 6 2 5 7 10 14 19 15 2 2 4 5 4 4 5 5 6 5 6 4 4 8 21 13 7 6 5 4 8 12 6 9
27 25 24 21 17 13 7 4 6 7 5 4 7 15 5 4 8 11 13 15 14 5 3 3 4 3 5 5 7 14 7 11 9 11 8 10 6 5 8 8 7 10 3 13
28 26 22 18 12 5 2 3 1 5 4 1 5 4 4 1 6 10 12 12 7 5 4 4 5 4 3 5 7 9 13 13 14 19 13 14 6 3 10 13 6 10 5 9
29 27 21 14 9 4 4 4 2 9 5 2 5 5 3 3 4 3 3 9 4 4 4 5 5 6 8 5 13 28 17 20 17 15 14 8 6 5 5 12 8 10 7 10
28 26 13 4 8 5 2 3 6 9 2 1 3 5 5 2 3 2 4 4 3 6 4 5 5 3 5 9 14 16 19 20 21 21 21 4 5 6 8 11 14 12 9 7
27 13 8 4 2 1 2 4 14 3 2 1 1 3 4 4 3 3 2 4 4 3 4 3 2 3 7 15 19 18 20 11 12 15 13 7 8 13 15 19 14 10 6 8
13 3 2 3 1 3 11 1 2 2 1 2 3 1 4 2 2 2 2 3 3 3 3 3 3 5 17 25 23 11 4 15 14 17 9 7 9 17 19 12 7 3 7 13
5 5 2 3 8 1 1 1 1 3 2 3 4 4 4 3 3 2 1 2 2 3 3 5 4 5 14 22 18 16 16 16 15 10 6 5 8 13 13 11 6 4 7 8
1 3 3 3 2 2 4 4 2 2 3 3 3 4 5 3 3 2 1 2 1 4 7 5 6 14 18 21 25 24 20 19 14 13 13 14 15 12 14 10 7 9 8 8
1 1 1 4 4 7 7 9 5 6 6 3 5 3 2 2 2 3 3 6 5 5 5 6 11 16 17 21 22 24 21 18 20 20 18 18 19 20 13 12 10 11 12 10
5 6 9 6 7 8 4 10 6 6 5 10 2 2 3 4 5 4 6 5 4 6 7 9 10 15 16 14 13 15 18 17 16 15 16 18 20 17 15 14 13 14 13 11
6 7 8 6 5 6 8 5 5 7 6 4 3 3 3 4 5 5 5 6 6 6 8 9 10 11 12 14 14 16 16 15 14 14 15 17 16 14 15 14 13 12 11 13
6 8 6 8 6 13 13 11 8 9 10 3 4 5 5 8 5 7 9 6 8 8 8 8 10 13 13 10 12 14 15 15 15 16 15 15 16 16 14 18 16 15 14 14
7 4 2 3 4 5 5 7 9 8 7 5 4 9 8 5 7 8 9 7 7 8 8 7 10 10 11 11 14 14 14 15 15 15 14 13 13 16 16 15 12 13 13 13
Wind_Direction
325 327 332 333 333 336 46 32 340 318 351 48 15 342 308 318 338 355 315 267 272 309 6 349 15 49 44 1 324 22 7 112 220 201 230 224 214 186 147 142 224 249 165 246
324 327 332 334 333 351 17 349 290 314 43 54 344 304 290 326 346 335 330 321 26 355 26 9 8 14 74 7 10 30 330 359 74 54 301 163 188 216 191 217 88 208 189 242
337 338 341 337 337 343 76 27 346 323 26 27 353 329 300 350 342 347 335 330 43 11 11 10 351 355 25 336 5 24 44 79 102 214 307 359 314 295 204 208 223 229 233 269
347 346 348 341 336 341 84 30 296 5 309 333 331 322 285 319 354 345 0 347 19 353 327 1 17 356 338 320 17 19 83 5 337 237 279 250 247 261 269 244 225 220 232 235
342 342 343 342 339 69 70 306 308 312 286 291 312 327 299 323 352 306 328 325 342 335 279 10 314 19 319 278 343 15 358 253 147 273 274 300 283 266 258 252 255 259 253 248
338 337 337 341 346 111 266 244 274 198 322 306 291 268 295 311 332 288 228 317 324 325 344 307 260 221 242 238 294 339 328 211 127 254 304 322 296 255 241 238 208 205 233 224
335 335 333 333 343 184 189 241 250 241 280 269 283 289 299 297 302 280 292 296 286 262 336 295 279 229 236 245 244 191 199 210 191 235 303 248 235 304 277 232 230 222 223 221
326 329 327 326 324 350 172 209 212 252 266 259 270 261 279 327 309 281 263 275 253 309 301 326 335 332 290 245 237 208 203 155 255 199 213 292 304 319 39 39 282 246 206 219
315 314 314 315 316 316 140 221 187 257 278 242 252 258 215 295 291 277 264 308 314 105 88 77 236 252 270 291 302 214 195 210 197 182 209 228 226 176 260 182 258 327 292 217
306 304 304 304 303 304 169 248 190 239 261 238 234 251 240 188 248 264 283 309 333 69 199 222 224 248 235 259 236 308 152 190 215 227 250 281 247 308 290 204 275 320 317 286
306 305 300 298 296 290 231 235 184 213 249 263 239 239 256 253 228 233 290 352 282 42 215 215 238 242 252 290 255 218 173 174 195 214 242 241 44 277 202 332 306 307 300 276
308 304 300 293 287 285 262 223 177 189 239 266 280 259 244 233 229 229 202 238 332 265 192 227 274 265 263 267 270 293 226 206 207 200 219 255 150 208 248 273 277 304 290 281
305 305 303 296 284 279 267 208 165 203 264 280 254 237 247 226 230 226 235 228 225 233 198 259 235 232 247 232 246 237 262 335 260 269 265 240 222 250 249 245 348 309 288 278
306 308 306 301 291 277 266 232 175 155 253 274 279 321 267 223 197 203 214 228 306 217 183 232 239 244 215 237 258 250 232 341 263 285 254 280 218 230 256 322 11 309 294 18
308 309 308 304 293 277 268 235 196 179 167 267 299 305 268 198 178 196 199 208 224 237 273 251 240 218 244 235 244 250 210 240 222 236 262 233 256 278 269 65 345 308 328 60
311 314 312 307 287 264 76 312 204 179 156 278 282 289 294 333 165 201 203 206 207 205 206 231 237 216 194 251 242 238 219 220 230 265 283 272 204 233 263 87 338 331 322 73
313 323 318 298 246 141 171 202 187 159 139 229 284 284 278 302 220 198 178 182 188 194 226 234 236 233 209 241 255 271 261 257 259 249 262 235 249 214 304 85 35 346 331 62
317 330 334 65 147 104 267 216 178 145 123 167 281 279 306 29 286 252 164 145 202 197 231 225 228 222 218 250 248 261 260 258 257 246 225 169 155 142 50 57 44 14 350 63
325 330 130 84 55 152 280 91 153 58 89 273 245 283 298 2 260 261 283 169 215 208 238 237 241 226 228 250 254 255 272 251 157 139 112 146 145 127 79 57 35 18 344 109
327 84 65 19 234 297 123 150 97 49 48 1 252 277 267 305 263 278 292 14 339 283 247 262 258 266 256 272 280 237 193 117 111 118 129 121 108 95 101 116 84 304 269 50
31 22 20 278 318 201 253 8 123 139 252 218 241 229 264 204 259 312 14 347 332 299 324 348 322 288 312 338 52 72 79 85 86 81 75 105 112 115 126 114 124 143 75 64
274 278 289 313 346 11 357 345 286 271 292 184 234 239 213 259 226 284 247 272 239 354 337 351 354 353 20 23 33 50 60 60 66 70 66 61 59 63 67 76 85 75 78 77
108 82 7 35 344 19 11 349 332 326 333 324 314 321 326 230 233 271 10 6 9 320 17 1 18 5 13 18 23 33 37 46 53 49 47 51 55 54 61 69 68 72 60 49
51 24 15 38 358 0 334 320 303 287 291 320 295 307 24 337 15 353 14 356 13 19 10 32 3 6 6 10 19 36 38 39 38 32 35 45 53 52 51 50 47 60 54 56
50 39 17 5 327 291 321 305 296 328 316 325 6 0 48 6 48 13 9 17 19 7 32 13 357 357 20 26 25 30 38 41 47 55 54 53 56 54 51 48 53 55 55 49
55 45 353 318 332 357 6 355 338 337 339 342 29 26 27 26 15 3 16 7 27 15 359 3 353 19 23 16 30 39 37 38 42 43 44 47 50 53 52 44 37 41 47 50
32 342 298 277 274 284 307 333 342 329 5 20 43 43 8 2 17 11 9 10 351 344 359 2 10 11 10 15 35 30 37 40 37 41 33 35 43 47 43 46 36 50 49 53